GW4823 Weather Reports


time (UTC)temp
C
wind
direction
speed
KPH
gust
KPH
rain 1hr
cm
rain 24hr
cm
rain mn
cm
humidity
%
barometer
mb
20260510093511 10 0 0.0 0.0 0.00 0.30 0.00 96 1011.3
20260510093030 10 0 0.0 0.0 0.00 0.30 0.00 97 1011.3
20260510092513 10 0 0.0 0.0 0.00 0.30 0.00 97 1011.1
20260510092011 10 0 0.0 0.0 0.00 0.30 0.00 97 1011.1
20260510091532 10 0 0.0 0.0 0.00 0.30 0.00 97 1011.2
20260510091017 10 0 0.0 0.0 0.00 0.30 0.00 97 1011.1
20260510090512 10 0 0.0 0.0 0.00 0.30 0.00 97 1011.2
20260510090029 10 0 0.0 0.0 0.00 0.30 0.00 97 1011.2
20260510085513 10 0 0.0 0.0 0.00 0.30 0.00 97 1011.3
20260510085012 10 0 0.0 1.6 0.00 0.30 0.00 97 1011.3
20260510084535 10 0 0.0 1.6 0.00 0.30 0.00 97 1011.4
20260510084013 10 0 0.0 3.2 0.00 0.30 0.00 97 1011.5
20260510083518 10 0 0.0 3.2 0.00 0.30 0.00 97 1011.4
20260510083029 10 0 0.0 0.0 0.00 0.30 0.00 97 1011.5
20260510082511 10 0 0.0 0.0 0.00 0.30 0.00 97 1011.4
20260510082011 10 0 0.0 0.0 0.00 0.30 0.00 97 1011.4
20260510081530 10 0 0.0 0.0 0.00 0.30 0.00 97 1011.5
20260510081013 10 0 0.0 0.0 0.00 0.30 0.00 97 1011.4
20260510080512 10 0 0.0 3.2 0.00 0.30 0.00 97 1011.4
20260510080033 10 0 0.0 3.2 0.00 0.30 0.00 97 1011.5
20260510075512 10 126 0.0 4.8 0.00 0.30 0.00 97 1011.4
20260510075011 10 0 1.6 4.8 0.00 0.30 0.00 97 1011.3
20260510074530 10 125 1.6 6.4 0.00 0.30 0.00 97 1011.6
20260510074013 9 125 0.0 6.4 0.00 0.30 0.00 97 1011.3
20260510073513 9 126 1.6 4.8 0.00 0.30 0.00 97 1011.4
20260510073030 9 127 1.6 4.8 0.00 0.30 0.00 96 1011.5
20260510072514 9 0 0.0 0.0 0.00 0.30 0.00 96 1010.8
20260510072015 9 0 0.0 0.0 0.00 0.30 0.00 96 1010.8
20260510071532 9 0 0.0 0.0 0.00 0.30 0.00 96 1010.8
20260510071010 9 0 0.0 0.0 0.00 0.30 0.00 96 1010.8
20260510070513 9 0 0.0 3.2 0.00 0.30 0.00 96 1010.8
20260510070031 9 0 0.0 3.2 0.00 0.30 0.00 96 1010.8
20260510065514 9 0 0.0 0.0 0.00 0.30 0.00 96 1010.8
20260510065013 9 0 0.0 0.0 0.00 0.30 0.00 96 1010.9
20260510064543 9 0 0.0 0.0 0.00 0.30 0.00 96 1010.9
20260510064012 9 0 0.0 0.0 0.00 0.30 0.00 96 1010.9
20260510063511 9 0 0.0 4.8 0.00 0.30 0.00 97 1010.9
20260510063031 9 0 0.0 4.8 0.00 0.30 0.00 96 1010.9
20260510062514 9 126 1.6 4.8 0.00 0.30 0.00 96 1011.0
20260510062014 9 0 0.0 0.0 0.00 0.30 0.00 96 1011.3
20260510061533 9 0 0.0 0.0 0.00 0.30 0.00 96 1011.1
20260510061014 9 0 0.0 0.0 0.00 0.30 0.00 96 1011.1
20260510060514 9 0 0.0 0.0 0.00 0.30 0.00 97 1011.1
20260510060030 9 0 0.0 0.0 0.00 0.30 0.00 96 1010.9
20260510055512 8 0 0.0 0.0 0.00 0.30 0.00 96 1010.7
20260510055011 8 0 0.0 0.0 0.00 0.30 0.00 97 1010.8
20260510054530 8 0 0.0 0.0 0.00 0.30 0.00 96 1010.8
20260510054013 8 0 0.0 0.0 0.00 0.30 0.00 96 1010.9
20260510053518 8 0 0.0 0.0 0.00 0.30 0.00 96 1010.9
20260510053041 8 0 0.0 0.0 0.00 0.30 0.00 96 1010.9
20260510052512 8 0 0.0 0.0 0.00 0.30 0.00 96 1010.9
20260510052012 8 0 0.0 0.0 0.00 0.30 0.00 96 1011.0
20260510051546 8 0 0.0 0.0 0.00 0.30 0.00 96 1011.0
20260510051019 8 0 0.0 0.0 0.00 0.30 0.00 96 1011.0
20260510050512 7 0 0.0 0.0 0.00 0.30 0.00 95 1011.1
20260510050029 7 0 0.0 0.0 0.00 0.30 0.00 96 1011.1
20260510045514 7 0 0.0 0.0 0.00 0.30 0.00 95 1011.1
20260510045015 7 0 0.0 0.0 0.00 0.30 0.00 95 1011.1
20260510044531 7 0 0.0 0.0 0.00 0.30 0.00 95 1011.0
20260510044011 7 0 0.0 0.0 0.00 0.30 0.00 95 1011.2
20260510043514 7 0 0.0 0.0 0.00 0.30 0.00 95 1011.2
20260510043031 7 0 0.0 0.0 0.00 0.30 0.00 94 1011.2
20260510042517 7 0 0.0 0.0 0.00 0.30 0.00 94 1011.2
20260510042010 7 0 0.0 0.0 0.00 0.30 0.00 94 1011.1
20260510041534 8 0 0.0 0.0 0.00 0.30 0.00 95 1011.2
20260510041017 8 0 0.0 0.0 0.00 0.30 0.00 94 1011.2
20260510040514 8 0 0.0 0.0 0.00 0.30 0.00 94 1011.3
20260510040033 8 0 0.0 0.0 0.00 0.30 0.00 94 1011.2
20260510035513 8 0 0.0 0.0 0.00 0.30 0.30 94 1011.3
20260510035017 8 0 0.0 0.0 0.00 0.30 0.30 94 1011.2
20260510034530 8 0 0.0 0.0 0.00 0.30 0.30 94 1011.2
20260510034011 8 0 0.0 0.0 0.00 0.30 0.30 93 1011.1
20260510033511 8 0 0.0 0.0 0.00 0.30 0.30 94 1011.0
20260510033029 8 0 0.0 0.0 0.00 0.30 0.30 94 1011.0
20260510032510 8 0 0.0 0.0 0.00 0.30 0.30 93 1011.1
20260510032017 8 0 0.0 0.0 0.00 0.30 0.30 94 1011.1
20260510031531 8 0 0.0 0.0 0.00 0.30 0.30 94 1011.0
20260510031013 8 0 0.0 0.0 0.00 0.30 0.30 94 1010.9
20260510030518 9 0 0.0 0.0 0.00 0.30 0.30 94 1010.9
20260510030032 9 0 0.0 0.0 0.00 0.30 0.30 93 1011.0
20260510025517 9 0 0.0 0.0 0.00 0.30 0.30 93 1010.9
20260510025018 9 0 0.0 0.0 0.00 0.30 0.30 93 1010.8
20260510024532 9 0 0.0 0.0 0.00 0.30 0.30 93 1010.8
20260510024015 9 0 0.0 0.0 0.00 0.30 0.30 93 1010.8
20260510023510 10 0 0.0 0.0 0.00 0.30 0.30 93 1010.9
20260510023029 10 0 0.0 0.0 0.00 0.30 0.30 92 1010.8
20260510022512 10 0 0.0 0.0 0.00 0.30 0.30 93 1010.7
20260510022011 10 0 0.0 0.0 0.00 0.30 0.30 93 1010.7
20260510021532 10 0 0.0 0.0 0.00 0.30 0.30 93 1010.7
20260510021011 10 0 0.0 0.0 0.00 0.30 0.30 93 1010.6
20260510020514 10 0 0.0 0.0 0.00 0.30 0.30 92 1010.7
20260510020031 10 0 0.0 0.0 0.00 0.30 0.30 92 1010.7
20260510015513 11 0 0.0 0.0 0.00 0.30 0.30 92 1010.6
20260510015012 11 0 0.0 0.0 0.00 0.30 0.30 92 1010.6
20260510014532 11 0 0.0 0.0 0.00 0.30 0.30 92 1010.6
20260510014012 11 0 0.0 0.0 0.00 0.30 0.30 92 1010.6
20260510013514 11 0 0.0 0.0 0.00 0.30 0.30 92 1010.7
20260510013034 11 0 0.0 0.0 0.00 0.30 0.30 93 1010.5
20260510012512 11 0 0.0 0.0 0.00 0.30 0.30 92 1010.5
20260510012010 11 0 0.0 0.0 0.00 0.30 0.30 91 1010.5
20260510011530 12 0 0.0 0.0 0.00 0.30 0.30 92 1010.4
20260510011010 12 0 0.0 0.0 0.00 0.30 0.30 92 1010.3
20260510010511 12 0 0.0 0.0 0.00 0.30 0.30 93 1010.3
20260510010029 12 0 0.0 0.0 0.00 0.30 0.30 93 1010.2
20260510005513 12 0 0.0 0.0 0.00 0.30 0.30 92 1010.2
20260510005017 12 0 0.0 1.6 0.00 0.30 0.30 92 1010.2
20260510004531 12 0 0.0 3.2 0.00 0.30 0.30 92 1010.0
20260510004011 12 126 0.0 3.2 0.00 0.30 0.30 92 1010.0
20260510003512 12 126 0.0 3.2 0.00 0.30 0.30 92 1010.0
20260510003031 12 0 0.0 1.6 0.00 0.30 0.30 90 1010.0
20260510002511 13 0 0.0 1.6 0.00 0.30 0.30 90 1010.0
20260510002011 13 0 0.0 1.6 0.00 0.30 0.30 90 1009.9
20260510001529 13 0 0.0 1.6 0.00 0.30 0.30 90 1009.8
20260510001011 13 0 0.0 0.0 0.00 0.30 0.30 90 1009.7
20260510000514 13 0 0.0 0.0 0.00 0.30 0.30 90 1009.7
20260510000032 13 0 0.0 3.2 0.00 0.30 0.30 90 1009.7
20260509235512 13 0 0.0 4.8 0.00 0.30 0.30 90 1009.7
20260509235013 13 126 0.0 6.4 0.00 0.30 0.30 90 1009.7
20260509234531 14 126 3.2 6.4 0.00 0.30 0.30 89 1009.7
20260509234013 14 121 1.6 9.7 0.00 0.30 0.30 89 1009.7
20260509233514 14 138 3.2 9.7 0.00 0.30 0.30 89 1009.8
20260509233033 14 143 1.6 11.3 0.00 0.30 0.30 88 1009.8
20260509232514 14 144 4.8 11.3 0.00 0.30 0.30 88 1009.7
20260509232011 15 181 6.4 11.3 0.00 0.30 0.30 88 1009.9
20260509231534 15 142 3.2 8.0 0.00 0.30 0.30 88 1009.7
20260509231014 15 117 1.6 9.7 0.00 0.30 0.30 87 1009.7
20260509230511 15 118 3.2 9.7 0.00 0.30 0.30 87 1009.8
20260509230030 15 118 4.8 9.7 0.00 0.30 0.30 86 1009.7
20260509225512 15 134 3.2 6.4 0.00 0.30 0.30 85 1009.7
20260509225010 15 133 3.2 6.4 0.00 0.30 0.30 84 1009.5
20260509224532 15 124 3.2 6.4 0.00 0.30 0.30 84 1009.5
20260509224010 15 107 0.0 3.2 0.00 0.30 0.30 82 1009.5
20260509223512 15 107 1.6 3.2 0.00 0.30 0.30 82 1009.6
20260509223030 15 0 0.0 4.8 0.00 0.30 0.30 84 1009.7
20260509222512 15 0 0.0 4.8 0.00 0.30 0.30 82 1009.7
20260509222010 15 53 1.6 4.8 0.00 0.30 0.30 83 1009.7
20260509221529 15 0 0.0 3.2 0.00 0.30 0.30 85 1009.7
20260509221012 15 32 0.0 3.2 0.00 0.30 0.30 87 1009.7
20260509220513 15 0 0.0 1.6 0.00 0.30 0.30 91 1009.7
20260509220039 15 0 0.0 1.6 0.00 0.30 0.30 90 1009.6
20260509215517 14 0 0.0 1.6 0.00 0.30 0.30 90 1009.6
20260509215012 14 0 0.0 3.2 0.00 0.30 0.30 90 1009.6
20260509214532 14 0 0.0 3.2 0.00 0.30 0.30 89 1009.5
20260509214015 14 0 0.0 1.6 0.00 0.30 0.30 89 1009.4
20260509213511 14 0 0.0 1.6 0.00 0.30 0.30 88 1009.4
20260509213033 15 0 0.0 3.2 0.00 0.30 0.30 89 1009.5
20260509212510 15 0 0.0 3.2 0.00 0.30 0.30 89 1009.7
20260509212013 15 0 0.0 8.0 0.00 0.30 0.30 88 1009.7
20260509211534 15 0 0.0 8.0 0.00 0.30 0.30 87 1009.6
20260509211013 15 32 3.2 8.0 0.00 0.30 0.30 88 1009.8
20260509210513 15 0 0.0 0.0 0.00 0.30 0.30 88 1010.0
20260509210032 15 0 0.0 0.0 0.00 0.30 0.30 87 1010.0
20260509205511 15 0 0.0 0.0 0.00 0.30 0.30 89 1010.0
20260509205013 15 0 0.0 0.0 0.00 0.30 0.30 89 1009.9
20260509204530 15 0 0.0 4.8 0.00 0.30 0.30 89 1010.0
20260509204014 15 0 0.0 4.8 0.03 0.30 0.30 88 1009.9
20260509203518 15 38 0.0 3.2 0.03 0.30 0.30 91 1010.0
20260509203037 14 0 0.0 3.2 0.05 0.30 0.30 91 1010.0
20260509202518 14 0 0.0 3.2 0.05 0.30 0.30 90 1010.0
20260509202016 14 38 0.0 3.2 0.05 0.30 0.30 91 1010.0
20260509201530 13 38 0.0 3.2 0.05 0.30 0.30 91 1009.9
20260509201013 13 0 0.0 1.6 0.05 0.30 0.30 92 1009.8
20260509200515 13 0 0.0 1.6 0.05 0.30 0.30 91 1010.0
20260509200038 13 38 0.0 0.0 0.05 0.30 0.30 91 1010.0
20260509195516 13 0 0.0 0.0 0.05 0.30 0.30 91 1010.1
20260509195015 13 0 0.0 0.0 0.05 0.30 0.30 91 1010.2
20260509194545 13 0 0.0 0.0 0.08 0.30 0.30 91 1010.3
20260509194015 13 0 0.0 0.0 0.05 0.28 0.28 91 1010.3
20260509193520 13 0 0.0 0.0 0.08 0.28 0.28 91 1010.4
20260509193037 13 0 0.0 0.0 0.08 0.25 0.25 91 1010.5
20260509192515 13 0 0.0 0.0 0.08 0.25 0.25 91 1010.7
20260509192015 13 0 0.0 1.6 0.10 0.25 0.25 91 1010.7
20260509191535 13 0 0.0 1.6 0.10 0.25 0.25 91 1010.9
20260509191017 13 0 0.0 1.6 0.10 0.25 0.25 91 1010.9
20260509190515 13 0 0.0 4.8 0.10 0.25 0.25 90 1011.1
20260509190032 13 0 0.0 4.8 0.13 0.25 0.25 90 1011.1
20260509185514 13 38 0.0 4.8 0.13 0.25 0.25 91 1011.1
20260509185018 13 0 0.0 0.0 0.13 0.25 0.25 92 1011.3
20260509184536 13 0 0.0 0.0 0.13 0.23 0.23 91 1011.5
20260509184017 13 0 0.0 0.0 0.15 0.23 0.23 91 1011.5
20260509183515 13 0 0.0 0.0 0.13 0.20 0.20 91 1011.7
20260509183048 13 0 0.0 0.0 0.10 0.18 0.18 91 1011.7
20260509182519 13 0 0.0 3.2 0.10 0.18 0.18 90 1011.6
20260509182018 13 0 0.0 3.2 0.08 0.15 0.15 91 1011.7
20260509181529 13 0 0.0 1.6 0.08 0.15 0.15 91 1011.6
20260509181020 13 0 0.0 1.6 0.08 0.15 0.15 90 1011.7
20260509180521 13 0 0.0 1.6 0.08 0.15 0.15 89 1011.7
20260509180033 13 0 0.0 1.6 0.05 0.13 0.13 89 1011.7
20260509175515 13 0 0.0 1.6 0.05 0.13 0.13 88 1011.7
20260509175015 13 246 0.0 4.8 0.05 0.10 0.10 88 1011.7
20260509174544 13 246 0.0 4.8 0.03 0.08 0.08 87 1011.8
20260509174019 13 244 1.6 4.8 0.03 0.08 0.08 87 1011.7
20260509173515 13 244 0.0 4.8 0.03 0.08 0.08 88 1011.6
20260509173032 14 246 0.0 4.8 0.03 0.08 0.08 89 1011.7
20260509172515 13 246 0.0 4.8 0.05 0.08 0.08 88 1011.7
20260509172016 13 248 0.0 4.8 0.05 0.08 0.08 88 1011.6
20260509171538 14 0 0.0 0.0 0.05 0.08 0.08 89 1011.6
20260509171013 14 0 0.0 0.0 0.05 0.08 0.08 89 1011.6
20260509170511 13 0 0.0 0.0 0.08 0.08 0.08 88 1011.5
20260509170032 14 0 0.0 0.0 0.08 0.08 0.08 89 1011.3
20260509165511 13 0 0.0 0.0 0.08 0.08 0.08 87 1011.3
20260509165013 13 0 0.0 1.6 0.05 0.05 0.05 87 1011.2
20260509164534 13 0 0.0 1.6 0.05 0.05 0.05 86 1011.3
20260509164013 14 0 0.0 1.6 0.05 0.05 0.05 87 1011.4
20260509163512 14 0 0.0 1.6 0.05 0.05 0.05 87 1011.3
20260509163042 14 0 0.0 3.2 0.05 0.05 0.05 87 1011.3
20260509162517 14 0 0.0 4.8 0.03 0.03 0.03 86 1011.3
20260509162013 14 228 1.6 11.3 0.03 0.03 0.03 86 1011.5
20260509161541 14 224 1.6 11.3 0.03 0.03 0.03 86 1011.5
20260509161012 15 219 4.8 11.3 0.03 0.03 0.03 86 1011.7
20260509160511 15 220 3.2 11.3 0.00 0.00 0.00 85 1011.6
20260509160030 15 215 1.6 11.3 0.00 0.00 0.00 85 1011.7
20260509155510 15 0 0.0 11.3 0.00 0.00 0.00 84 1011.7
20260509155010 15 245 3.2 11.3 0.00 0.00 0.00 83 1011.9
20260509154531 15 194 1.6 11.3 0.00 0.00 0.00 83 1011.9
20260509154013 15 201 3.2 11.3 0.00 0.00 0.00 84 1011.9
20260509153511 15 223 3.2 8.0 0.00 0.00 0.00 82 1011.9
20260509153044 15 262 3.2 12.9 0.00 0.00 0.00 83 1012.0
20260509152513 15 250 4.8 12.9 0.00 0.00 0.00 82 1012.0
20260509152013 15 264 3.2 9.7 0.00 0.00 0.00 82 1012.1
20260509151530 15 219 1.6 9.7 0.00 0.00 0.00 82 1012.1
20260509151012 15 225 4.8 9.7 0.00 0.00 0.00 81 1011.9
20260509150516 15 258 0.0 11.3 0.00 0.00 0.00 82 1011.9
20260509150038 15 242 3.2 11.3 0.00 0.00 0.00 81 1011.8
20260509145515 15 290 3.2 6.4 0.00 0.00 0.00 82 1011.8
20260509145015 15 147 1.6 9.7 0.00 0.00 0.00 82 1011.8
20260509144531 15 146 4.8 9.7 0.00 0.00 0.00 81 1011.7
20260509144012 15 169 3.2 9.7 0.00 0.00 0.00 82 1011.7
20260509143515 15 181 4.8 9.7 0.00 0.00 0.00 81 1011.7
20260509143030 15 217 4.8 9.7 0.00 0.00 0.00 80 1011.8
20260509142515 14 179 4.8 9.7 0.00 0.00 0.00 80 1011.7
20260509142015 14 218 3.2 8.0 0.00 0.00 0.00 81 1011.6
20260509141529 14 185 0.0 6.4 0.00 0.00 0.00 81 1011.6
20260509141016 14 190 3.2 8.0 0.00 0.00 0.00 81 1011.7
20260509140515 14 188 3.2 8.0 0.00 0.00 0.00 81 1011.6
20260509140034 14 175 3.2 12.9 0.00 0.00 0.00 80 1011.5
20260509135515 14 126 3.2 12.9 0.00 0.00 0.00 81 1011.4
20260509135016 14 158 1.6 8.0 0.00 0.00 0.00 81 1011.5
20260509134532 14 0 1.6 8.0 0.00 0.00 0.00 81 1011.4
20260509134014 13 174 1.6 8.0 0.00 0.00 0.00 81 1011.5
20260509133515 13 217 1.6 8.0 0.00 0.00 0.00 82 1011.5
20260509133030 13 149 3.2 8.0 0.00 0.00 0.00 81 1011.6
20260509132516 13 175 1.6 6.4 0.00 0.00 0.00 82 1011.5
20260509132011 13 144 0.0 6.4 0.00 0.00 0.00 82 1011.5
20260509131533 13 0 3.2 6.4 0.00 0.00 0.00 82 1011.3
20260509131015 13 148 1.6 6.4 0.00 0.00 0.00 82 1011.3
20260509130515 13 119 1.6 6.4 0.00 0.00 0.00 82 1011.4
20260509130032 13 107 0.0 6.4 0.00 0.00 0.00 82 1011.4
20260509125521 13 0 1.6 6.4 0.00 0.00 0.00 83 1011.5
20260509125019 12 117 1.6 6.4 0.00 0.00 0.00 83 1011.7
20260509124531 12 117 1.6 6.4 0.00 0.00 0.00 83 1011.6
20260509124015 12 116 3.2 4.8 0.00 0.00 0.00 84 1011.5
20260509123513 12 116 1.6 4.8 0.00 0.00 0.00 84 1011.5
20260509123037 12 116 1.6 4.8 0.00 0.00 0.00 85 1011.5
20260509122512 12 116 0.0 3.2 0.00 0.00 0.00 86 1011.5
20260509122015 11 116 0.0 3.2 0.00 0.00 0.00 87 1011.5
20260509121533 11 0 0.0 3.2 0.00 0.00 0.00 89 1011.4
20260509121015 11 116 1.6 3.2 0.00 0.00 0.00 90 1011.5
20260509120519 11 116 0.0 3.2 0.00 0.00 0.00 91 1011.5
20260509120036 11 0 0.0 1.6 0.00 0.00 0.00 90 1011.6
20260509115515 11 0 0.0 3.2 0.00 0.00 0.00 91 1011.6
20260509115013 11 0 0.0 3.2 0.00 0.00 0.00 90 1011.6
20260509114530 11 0 0.0 1.6 0.00 0.00 0.00 91 1011.5
20260509114013 11 0 0.0 0.0 0.00 0.00 0.00 90 1011.4
20260509113514 11 0 0.0 0.0 0.00 0.00 0.00 90 1011.4
20260509113030 11 0 0.0 1.6 0.00 0.00 0.00 90 1011.5
20260509112510 11 0 0.0 1.6 0.00 0.00 0.00 90 1011.4
20260509112011 10 0 0.0 3.2 0.00 0.00 0.00 91 1011.4
20260509111528 10 0 0.0 3.2 0.00 0.00 0.00 91 1011.4
20260509111012 10 0 0.0 6.4 0.00 0.00 0.00 91 1011.4
20260509110513 10 0 0.0 9.7 0.00 0.00 0.00 91 1011.4
20260509110028 10 117 1.6 9.7 0.00 0.00 0.00 92 1011.4
20260509105512 10 100 0.0 4.8 0.00 0.00 0.00 92 1011.1
20260509105010 10 0 0.0 0.0 0.00 0.00 0.00 92 1011.2
20260509104530 10 0 0.0 0.0 0.00 0.00 0.00 92 1011.3
20260509104012 10 0 0.0 0.0 0.00 0.00 0.00 92 1011.2
20260509103510 10 0 0.0 0.0 0.00 0.00 0.00 92 1011.1
20260509103033 9 0 0.0 0.0 0.00 0.00 0.00 92 1011.2
20260509102513 9 0 0.0 0.0 0.00 0.00 0.00 91 1011.2
20260509102015 9 0 0.0 0.0 0.00 0.00 0.00 91 1011.0
20260509101530 9 0 0.0 0.0 0.00 0.00 0.00 92 1011.0
20260509101015 9 0 0.0 0.0 0.00 0.00 0.00 91 1011.0
20260509100511 9 0 0.0 0.0 0.00 0.00 0.00 91 1011.0
20260509100029 9 0 0.0 0.0 0.00 0.00 0.00 91 1011.1
20260509095515 9 0 0.0 0.0 0.00 0.00 0.00 92 1011.0
20260509095012 9 0 0.0 0.0 0.00 0.00 0.00 92 1011.2
20260509094529 9 0 0.0 0.0 0.00 0.00 0.00 91 1011.3
20260509094011 9 0 0.0 0.0 0.00 0.00 0.00 91 1011.1